Location: Baia Mare
(47.6567°N, 23.5850°E)
Time: 17:08:29
(UTC+03:00)

ISS - Pass Details

Date: 27 May 2018
Orbit: 402 x 407 km, 51.6° (Epoch: 23 May)

Event Time Altitude Azimuth Distance (km) Brightness Sun altitude
Rises 01:22:09 0° 293° (WNW) 2,321 0.3 -21.1°
Reaches altitude 10° 01:24:15 10° 294° (WNW) 1,459 -0.7 -21.1°
Enters shadow 01:26:28 40° 294° (WNW) 608 -2.8 -21.1°
